START_TIME,STEP,MOV.,M34,t_acc.,L5,t_acc.,L18,t_acc.,L14,t_acc.
1979-07-20 18:00:24.460 ,0,1,0.,12.0,0.,12.0,0.,12.0,0.,12.0
1979-07-20 18:00:36.460 ,0,1,0.,12.0,0.,12.0,0.,12.0,0.,12.0
1979-07-20 18:00:48.460 ,3,1,0.,12.0,0.,12.0,0.,12.0,0.,12.0
1979-07-20 18:01:00.460 ,3,1,0.,12.0,0.,12.0,0.,12.0,0.,12.0
1979-07-20 18:01:12.460 ,7,1,0.,12.0,0.,12.0,0.,12.0,0.,12.0
1979-07-20 18:01:24.460 ,7,1,0.,12.0,0.,12.0,0.,12.0,0.,12.0
1979-07-20 18:01:36.460 ,4,1,0.,12.0,0.,12.0,0.,12.0,0.,12.0
1979-07-20 18:01:48.460 ,4,1,0.,12.0,0.,12.0,0.,12.0,0.,12.0
1979-07-20 18:02:00.460 ,0,1,0.,12.0,0.,12.0,0.,12.0,0.,12.0
1979-07-20 18:02:12.460 ,0,1,1.,12.0,0.,12.0,0.,12.0,0.,12.0
1979-07-20 18:02:24.460 ,3,1,0.,12.0,0.,12.0,0.,12.0,0.,12.0
1979-07-20 18:02:36.460 ,3,1,0.,12.0,0.,12.0,0.,12.0,0.,12.0
1979-07-20 18:02:48.460 ,7,1,0.,12.0,0.,12.0,0.,12.0,0.,12.0
1979-07-20 18:03:00.460 ,7,1,0.,12.0,0.,12.0,0.,12.0,0.,12.0
1979-07-20 18:03:12.460 ,4,1,0.,12.0,0.,12.0,0.,12.0,0.,12.0
1979-07-20 18:03:24.460 ,4,1,0.,12.0,0.,12.0,0.,12.0,0.,12.0
1979-07-20 18:03:36.460 ,0,1,0.,12.0,0.,12.0,0.,12.0,0.,12.0
1979-07-20 18:03:48.460 ,0,1,0.,12.0,0.,12.0,0.,12.0,0.,12.0
1979-07-20 18:04:00.460 ,3,1,0.,12.0,0.,12.0,0.,12.0,0.,12.0
1979-07-20 18:04:12.460 ,3,1,0.,12.0,0.,12.0,0.,12.0,0.,12.0
1979-07-20 18:04:24.460 ,7,1,0.,12.0,0.,12.0,0.,12.0,0.,12.0
1979-07-20 18:04:36.460 ,7,1,0.,12.0,0.,12.0,0.,12.0,0.,12.0
1979-07-20 18:04:48.460 ,4,1,0.,12.0,0.,12.0,0.,12.0,0.,12.0
1979-07-20 18:05:00.460 ,4,1,0.,12.0,0.,12.0,0.,12.0,0.,12.0
1979-07-20 18:05:12.460 ,0,1,0.,12.0,0.,12.0,0.,12.0,0.,12.0
1979-07-20 18:05:24.460 ,0,1,0.,12.0,0.,12.0,0.,12.0,0.,12.0
1979-07-20 18:05:36.460 ,0,0,0.,12.0,0.,12.0,0.,12.0,0.,12.0
1979-07-20 18:05:48.460 ,0,0,0.,12.0,0.,12.0,0.,12.0,0.,12.0
1979-07-20 18:06:00.460 ,0,0,0.,12.0,0.,12.0,0.,12.0,0.,12.0
1979-07-20 18:06:12.460 ,0,0,0.,12.0,0.,12.0,0.,12.0,0.,12.0
1979-07-20 18:06:24.460 ,5,1,0.,12.0,0.,12.0,0.,12.0,0.,12.0
1979-07-20 18:06:36.460 ,5,1,0.,12.0,0.,12.0,0.,12.0,0.,12.0
1979-07-20 18:06:48.460 ,5,0,0.,12.0,0.,12.0,0.,12.0,0.,12.0
1979-07-20 18:07:00.460 ,5,0,0.,12.0,0.,12.0,0.,12.0,0.,12.0
1979-07-20 18:07:12.460 ,0,0,0.,12.0,0.,12.0,0.,12.0,0.,12.0
1979-07-20 18:07:24.460 ,0,0,,0,,0,,0,,0
1979-07-20 18:07:36.460 ,0,0,,0,,0,,0,,0
1979-07-20 18:07:48.460 ,0,0,,0,,0,,0,,0
1979-07-20 18:08:33.460 ,0,0,,0,,0,,0,,0
1979-07-20 18:08:45.460 ,0,0,0.,12.0,0.,12.0,0.,12.0,0.,12.0
1979-07-20 18:08:48.460 ,2,1,0.,12.0,0.,12.0,0.,12.0,0.,12.0
1979-07-20 18:09:00.460 ,2,1,0.,12.0,0.,12.0,0.,12.0,0.,12.0
1979-07-20 18:09:12.460 ,2,0,0.,12.0,0.,12.0,0.,12.0,0.,12.0
1979-07-20 18:09:24.460 ,2,0,0.,12.0,0.,12.0,0.,12.0,0.,12.0
1979-07-20 18:09:36.460 ,1,1,0.,12.0,0.,12.0,0.,12.0,0.,12.0
1979-07-20 18:09:48.460 ,1,1,0.,12.0,0.,12.0,0.,12.0,0.,12.0
1979-07-20 18:10:00.460 ,1,0,0.,12.0,0.,12.0,0.,12.0,0.,12.0
1979-07-20 18:10:12.460 ,1,0,0.,12.0,0.,12.0,0.,12.0,0.,12.0
1979-07-20 18:10:24.460 ,0,1,0.,12.0,0.,12.0,0.,12.0,0.,12.0
1979-07-20 18:10:36.460 ,0,1,0.,12.0,0.,12.0,0.,12.0,0.,12.0
1979-07-20 18:10:48.460 ,0,0,0.,12.0,0.,12.0,0.,12.0,0.,12.0
1979-07-20 18:11:00.460 ,0,0,0.,12.0,0.,12.0,0.,12.0,0.,12.0
1979-07-20 18:11:12.460 ,0,1,0.,12.0,0.,12.0,0.,12.0,0.,12.0
1979-07-20 18:11:24.460 ,0,1,0.,12.0,0.,12.0,0.,12.0,0.,12.0
1979-07-20 18:11:36.460 ,0,0,0.,12.0,0.,12.0,0.,12.0,0.,12.0
1979-07-20 18:11:48.460 ,0,0,0.,12.0,0.,12.0,0.,12.0,0.,12.0
1979-07-20 18:12:00.460 ,1,1,0.,12.0,0.,12.0,0.,12.0,0.,12.0
1979-07-20 18:12:12.460 ,1,1,0.,12.0,0.,12.0,0.,12.0,0.,12.0
1979-07-20 18:12:24.460 ,1,0,0.,12.0,0.,12.0,0.,12.0,0.,12.0
1979-07-20 18:12:36.460 ,1,0,0.,12.0,0.,12.0,0.,12.0,0.,12.0
1979-07-20 18:12:48.460 ,2,1,0.,12.0,0.,12.0,0.,12.0,0.,12.0
1979-07-20 18:13:00.460 ,2,1,0.,12.0,0.,12.0,0.,12.0,0.,12.0
1979-07-20 18:13:12.460 ,2,0,0.,12.0,0.,12.0,0.,12.0,0.,12.0
1979-07-20 18:13:24.460 ,2,0,0.,12.0,0.,12.0,0.,12.0,0.,12.0
1979-07-20 18:13:36.460 ,3,1,0.,12.0,0.,12.0,0.,12.0,0.,12.0
1979-07-20 18:13:48.460 ,3,1,0.,12.0,0.,12.0,0.,12.0,0.,12.0
1979-07-20 18:14:00.460 ,3,0,0.,12.0,0.,12.0,0.,12.0,0.,12.0
1979-07-20 18:14:12.460 ,3,0,0.,12.0,0.,12.0,0.,12.0,0.,12.0
1979-07-20 18:14:24.460 ,4,1,0.,12.0,0.,12.0,0.,12.0,0.,12.0
1979-07-20 18:14:36.460 ,4,1,0.,12.0,0.,12.0,0.,12.0,0.,12.0
1979-07-20 18:14:48.460 ,4,0,0.,12.0,0.,12.0,0.,12.0,0.,12.0
1979-07-20 18:15:00.460 ,4,0,0.,12.0,0.,12.0,0.,12.0,0.,12.0
1979-07-20 18:15:12.460 ,5,1,0.,12.0,0.,12.0,0.,12.0,0.,12.0
1979-07-20 18:15:24.460 ,5,1,0.,12.0,0.,12.0,0.,12.0,0.,12.0
1979-07-20 18:15:36.460 ,5,0,0.,12.0,0.,12.0,0.,12.0,0.,12.0
1979-07-20 18:15:48.460 ,5,0,0.,12.0,0.,12.0,0.,12.0,0.,12.0
1979-07-20 18:16:00.460 ,6,1,0.,12.0,0.,12.0,0.,12.0,0.,12.0
1979-07-20 18:16:12.460 ,6,1,0.,12.0,0.,12.0,0.,12.0,0.,12.0
1979-07-20 18:16:24.460 ,6,0,0.,12.0,0.,12.0,0.,12.0,0.,12.0
1979-07-20 18:16:36.460 ,6,0,0.,12.0,0.,12.0,0.,12.0,0.,12.0
1979-07-20 18:16:48.460 ,7,1,0.,12.0,0.,12.0,0.,12.0,0.,12.0
1979-07-20 18:17:00.460 ,7,1,0.,12.0,0.,12.0,0.,12.0,0.,12.0
1979-07-20 18:17:12.460 ,7,0,0.,12.0,0.,12.0,0.,12.0,0.,12.0
1979-07-20 18:17:24.460 ,7,0,0.,12.0,0.,12.0,0.,12.0,0.,12.0
1979-07-20 18:17:36.460 ,7,1,0.,12.0,0.,12.0,0.,12.0,0.,12.0
1979-07-20 18:17:48.460 ,7,1,0.,12.0,0.,12.0,0.,12.0,0.,12.0
1979-07-20 18:18:00.460 ,7,0,0.,12.0,0.,12.0,0.,12.0,0.,12.0
1979-07-20 18:18:12.460 ,7,0,0.,12.0,0.,12.0,0.,12.0,0.,12.0
1979-07-20 18:18:24.460 ,6,1,0.,12.0,0.,12.0,0.,12.0,0.,12.0
1979-07-20 18:18:36.460 ,6,1,0.,12.0,0.,12.0,0.,12.0,0.,12.0
1979-07-20 18:18:48.460 ,6,0,0.,12.0,0.,12.0,0.,12.0,0.,12.0
1979-07-20 18:19:00.460 ,6,0,0.,12.0,0.,12.0,0.,12.0,0.,12.0
1979-07-20 18:19:12.460 ,5,1,0.,12.0,0.,12.0,0.,12.0,0.,12.0
1979-07-20 18:19:24.460 ,5,1,0.,12.0,0.,12.0,0.,12.0,0.,12.0
1979-07-20 18:19:36.460 ,5,0,0.,12.0,0.,12.0,0.,12.0,0.,12.0
1979-07-20 18:19:48.460 ,5,0,0.,12.0,0.,12.0,0.,12.0,0.,12.0
1979-07-20 18:20:00.460 ,4,1,0.,12.0,0.,12.0,0.,12.0,0.,12.0
1979-07-20 18:20:12.460 ,4,1,0.,12.0,0.,12.0,0.,12.0,0.,12.0
1979-07-20 18:20:24.460 ,4,0,0.,12.0,0.,12.0,0.,12.0,0.,12.0
1979-07-20 18:20:36.460 ,4,0,0.,12.0,0.,12.0,0.,12.0,0.,12.0
1979-07-20 18:20:48.460 ,3,1,0.,12.0,0.,12.0,0.,12.0,0.,12.0
1979-07-20 18:21:00.460 ,3,1,0.,12.0,0.,12.0,0.,12.0,0.,12.0
1979-07-20 18:21:12.460 ,3,0,0.,12.0,0.,12.0,0.,12.0,0.,12.0
1979-07-20 18:21:24.460 ,3,0,0.,12.0,0.,12.0,0.,12.0,0.,12.0
1979-07-20 18:21:36.460 ,2,1,0.,12.0,0.,12.0,0.,12.0,0.,12.0
1979-07-20 18:21:48.460 ,2,1,0.,12.0,0.,12.0,0.,12.0,0.,12.0
1979-07-20 18:22:00.460 ,2,0,0.,12.0,0.,12.0,0.,12.0,0.,12.0
1979-07-20 18:22:12.460 ,2,0,0.,12.0,0.,12.0,0.,12.0,0.,12.0
1979-07-20 18:22:24.460 ,1,1,0.,12.0,0.,12.0,0.,12.0,0.,12.0
1979-07-20 18:22:36.460 ,1,1,0.,12.0,0.,12.0,0.,12.0,0.,12.0
1979-07-20 18:22:48.460 ,1,0,0.,12.0,0.,12.0,0.,12.0,0.,12.0
1979-07-20 18:23:00.460 ,1,0,0.,12.0,0.,12.0,0.,12.0,0.,12.0
1979-07-20 18:23:12.460 ,0,1,0.,12.0,0.,12.0,0.,12.0,0.,12.0
1979-07-20 18:23:24.460 ,0,1,0.,12.0,0.,12.0,0.,12.0,0.,12.0
1979-07-20 18:23:36.460 ,0,0,0.,12.0,0.,12.0,0.,12.0,0.,12.0
1979-07-20 18:23:48.460 ,0,0,0.,12.0,0.,12.0,0.,12.0,0.,12.0
1979-07-20 18:24:00.460 ,0,1,0.,12.0,0.,12.0,0.,12.0,0.,12.0
1979-07-20 18:24:12.460 ,0,1,0.,12.0,0.,12.0,0.,12.0,0.,12.0
1979-07-20 18:24:24.460 ,0,0,0.,12.0,0.,12.0,0.,12.0,0.,12.0
1979-07-20 18:24:36.460 ,0,0,0.,12.0,0.,12.0,0.,12.0,0.,12.0
1979-07-20 18:24:48.460 ,1,1,0.,12.0,0.,12.0,0.,12.0,0.,12.0
1979-07-20 18:25:00.460 ,1,1,0.,12.0,0.,12.0,0.,12.0,0.,12.0
1979-07-20 18:25:12.460 ,1,0,0.,12.0,0.,12.0,0.,12.0,0.,12.0
1979-07-20 18:25:24.460 ,1,0,0.,12.0,0.,12.0,0.,12.0,0.,12.0
1979-07-20 18:25:36.460 ,2,1,0.,12.0,0.,12.0,0.,12.0,0.,12.0
1979-07-20 18:25:48.460 ,2,1,0.,12.0,0.,12.0,0.,12.0,0.,12.0
1979-07-20 18:26:00.460 ,2,0,0.,12.0,0.,12.0,0.,12.0,0.,12.0
1979-07-20 18:26:12.460 ,2,0,0.,12.0,0.,12.0,0.,12.0,0.,12.0
1979-07-20 18:26:24.460 ,3,1,0.,12.0,0.,12.0,0.,12.0,0.,12.0
1979-07-20 18:26:36.460 ,3,1,0.,12.0,0.,12.0,0.,12.0,0.,12.0
1979-07-20 18:26:48.460 ,3,0,0.,12.0,0.,12.0,0.,12.0,0.,12.0
1979-07-20 18:27:00.460 ,3,0,0.,12.0,0.,12.0,0.,12.0,0.,12.0
1979-07-20 18:27:12.460 ,4,1,0.,12.0,0.,12.0,0.,12.0,0.,12.0
1979-07-20 18:27:24.460 ,4,1,0.,12.0,0.,12.0,0.,12.0,0.,12.0
1979-07-20 18:27:36.460 ,4,0,0.,12.0,0.,12.0,0.,12.0,0.,12.0
1979-07-20 18:27:48.460 ,4,0,0.,12.0,0.,12.0,0.,12.0,0.,12.0
1979-07-20 18:28:00.460 ,5,1,0.,12.0,0.,12.0,0.,12.0,0.,12.0
1979-07-20 18:28:12.460 ,5,1,0.,12.0,0.,12.0,0.,12.0,0.,12.0
1979-07-20 18:28:24.460 ,5,0,0.,12.0,0.,12.0,0.,12.0,0.,12.0
1979-07-20 18:28:36.460 ,5,0,0.,12.0,0.,12.0,0.,12.0,0.,12.0
1979-07-20 18:28:48.460 ,6,1,0.,12.0,0.,12.0,0.,12.0,0.,12.0
1979-07-20 18:29:00.460 ,6,1,0.,12.0,0.,12.0,0.,12.0,0.,12.0
1979-07-20 18:29:12.460 ,6,0,0.,12.0,0.,12.0,0.,12.0,0.,12.0
1979-07-20 18:29:24.460 ,6,0,0.,12.0,0.,12.0,0.,12.0,0.,12.0
1979-07-20 18:29:36.460 ,7,1,0.,12.0,0.,12.0,0.,12.0,0.,12.0
1979-07-20 18:29:48.460 ,7,1,0.,12.0,0.,12.0,0.,12.0,0.,12.0
1979-07-20 18:30:00.460 ,7,0,0.,12.0,0.,12.0,0.,12.0,0.,12.0
1979-07-20 18:30:12.460 ,7,0,0.,12.0,0.,12.0,0.,12.0,0.,12.0
1979-07-20 18:31:12.460 ,0,0,0.,12.0,0.,12.0,0.,12.0,0.,12.0
1979-07-20 18:31:24.460 ,0,0,0.,12.0,0.,12.0,0.,12.0,0.,12.0
1979-07-20 18:31:36.460 ,0,0,0.,12.0,0.,12.0,0.,12.0,0.,12.0
1979-07-20 18:31:48.460 ,0,0,0.,12.0,0.,12.0,0.,12.0,0.,12.0
1979-07-20 18:32:00.450 ,5,1,0.,12.0,0.,12.0,0.,12.0,0.,12.0
1979-07-20 18:32:12.450 ,5,1,0.,12.0,0.,12.0,0.,12.0,0.,12.0
1979-07-20 18:32:24.450 ,5,0,0.,12.0,0.,12.0,0.,12.0,0.,12.0
1979-07-20 18:32:36.450 ,5,0,0.,12.0,0.,12.0,0.,12.0,0.,12.0
1979-07-20 18:32:48.450 ,4,1,0.,12.0,0.,12.0,0.,12.0,0.,12.0
1979-07-20 18:33:00.450 ,4,1,0.,12.0,0.,12.0,0.,12.0,0.,12.0
1979-07-20 18:33:12.450 ,4,0,0.,12.0,0.,12.0,0.,12.0,0.,12.0
1979-07-20 18:33:24.450 ,4,0,0.,12.0,0.,12.0,0.,12.0,0.,12.0
1979-07-20 18:33:36.450 ,3,1,0.,12.0,0.,12.0,0.,12.0,0.,12.0
1979-07-20 18:33:48.450 ,3,1,0.,12.0,0.,12.0,0.,12.0,0.,12.0
1979-07-20 18:34:00.450 ,3,0,1.,12.0,0.,12.0,0.,12.0,0.,12.0
1979-07-20 18:34:12.460 ,3,0,0.,12.0,0.,12.0,0.,12.0,0.,12.0
1979-07-20 18:34:24.450 ,2,1,0.,12.0,0.,12.0,0.,12.0,0.,12.0
1979-07-20 18:34:36.450 ,2,1,0.,12.0,0.,12.0,0.,12.0,0.,12.0
1979-07-20 18:34:48.450 ,2,0,0.,12.0,0.,12.0,0.,12.0,0.,12.0
1979-07-20 18:35:00.450 ,2,0,0.,12.0,0.,12.0,0.,12.0,0.,12.0
1979-07-20 18:35:12.450 ,1,1,0.,12.0,0.,12.0,0.,12.0,0.,12.0
1979-07-20 18:35:24.450 ,1,1,0.,12.0,0.,12.0,0.,12.0,0.,12.0
1979-07-20 18:35:36.450 ,1,0,0.,12.0,0.,12.0,0.,12.0,0.,12.0
1979-07-20 18:35:48.450 ,1,0,0.,12.0,0.,12.0,0.,12.0,0.,12.0
1979-07-20 18:36:00.450 ,0,1,0.,12.0,0.,12.0,0.,12.0,0.,12.0
1979-07-20 18:36:12.450 ,0,1,0.,12.0,0.,12.0,0.,12.0,0.,12.0
1979-07-20 18:36:24.450 ,0,0,0.,12.0,0.,12.0,0.,12.0,0.,12.0
1979-07-20 18:36:36.450 ,0,0,0.,12.0,0.,12.0,0.,12.0,0.,12.0
1979-07-20 18:36:48.450 ,0,1,0.,12.0,0.,12.0,0.,12.0,0.,12.0
1979-07-20 18:37:00.450 ,0,1,0.,12.0,0.,12.0,0.,12.0,0.,12.0
1979-07-20 18:37:12.450 ,0,0,0.,12.0,0.,12.0,0.,12.0,0.,12.0
1979-07-20 18:37:24.450 ,0,0,0.,12.0,0.,12.0,0.,12.0,0.,12.0
1979-07-20 18:37:36.450 ,1,1,0.,12.0,0.,12.0,0.,12.0,0.,12.0
1979-07-20 18:37:48.450 ,1,1,0.,12.0,0.,12.0,0.,12.0,0.,12.0
1979-07-20 18:38:00.450 ,1,0,0.,12.0,0.,12.0,0.,12.0,0.,12.0
1979-07-20 18:38:12.450 ,1,0,0.,12.0,0.,12.0,0.,12.0,0.,12.0
1979-07-20 18:38:24.450 ,2,1,0.,12.0,0.,12.0,0.,12.0,0.,12.0
1979-07-20 18:38:36.450 ,2,1,0.,12.0,0.,12.0,0.,12.0,0.,12.0
1979-07-20 18:38:48.450 ,2,0,0.,12.0,0.,12.0,0.,12.0,0.,12.0
1979-07-20 18:39:00.450 ,2,0,0.,12.0,0.,12.0,0.,12.0,0.,12.0
1979-07-20 18:39:12.450 ,3,1,0.,12.0,0.,12.0,0.,12.0,0.,12.0
1979-07-20 18:39:24.450 ,3,1,0.,12.0,0.,12.0,0.,12.0,0.,12.0
1979-07-20 18:39:36.450 ,3,0,0.,12.0,0.,12.0,0.,12.0,0.,12.0
1979-07-20 18:39:48.450 ,3,0,0.,12.0,0.,12.0,0.,12.0,0.,12.0
1979-07-20 18:40:00.450 ,4,1,0.,12.0,0.,12.0,0.,12.0,0.,12.0
1979-07-20 18:40:12.450 ,4,1,0.,12.0,0.,12.0,0.,12.0,0.,12.0
1979-07-20 18:40:24.450 ,4,0,1.,12.0,0.,12.0,0.,12.0,0.,12.0
1979-07-20 18:40:36.450 ,4,0,0.,12.0,0.,12.0,0.,12.0,0.,12.0
1979-07-20 18:40:48.450 ,5,1,0.,12.0,0.,12.0,0.,12.0,0.,12.0
1979-07-20 18:41:00.450 ,5,1,0.,12.0,0.,12.0,0.,12.0,0.,12.0
1979-07-20 18:41:12.450 ,5,0,0.,12.0,0.,12.0,0.,12.0,0.,12.0
1979-07-20 18:41:24.450 ,5,0,0.,12.0,0.,12.0,0.,12.0,0.,12.0
1979-07-20 18:41:36.450 ,6,1,0.,12.0,0.,12.0,0.,12.0,0.,12.0
1979-07-20 18:41:48.450 ,6,1,0.,12.0,0.,12.0,0.,12.0,0.,12.0
1979-07-20 18:42:00.450 ,6,0,0.,12.0,0.,12.0,0.,12.0,0.,12.0
1979-07-20 18:42:12.450 ,6,0,0.,12.0,0.,12.0,0.,12.0,0.,12.0
1979-07-20 18:42:24.450 ,7,0,0.,12.0,0.,12.0,0.,12.0,0.,12.0
1979-07-20 18:42:36.450 ,7,0,0.,12.0,0.,12.0,0.,12.0,0.,12.0
1979-07-20 18:42:48.450 ,7,0,0.,12.0,0.,12.0,0.,12.0,0.,12.0
1979-07-20 18:43:00.450 ,7,0,0.,12.0,0.,12.0,0.,12.0,0.,12.0
1979-07-20 18:43:12.450 ,4,1,0.,12.0,0.,12.0,0.,12.0,0.,12.0
1979-07-20 18:43:24.450 ,4,1,0.,12.0,0.,12.0,0.,12.0,0.,12.0
1979-07-20 18:43:36.450 ,0,1,0.,12.0,0.,12.0,0.,12.0,0.,12.0
1979-07-20 18:43:48.450 ,0,1,0.,12.0,0.,12.0,0.,12.0,0.,12.0
1979-07-20 18:44:00.450 ,3,1,0.,12.0,0.,12.0,0.,12.0,0.,12.0
1979-07-20 18:44:12.450 ,3,1,0.,12.0,0.,12.0,0.,12.0,0.,12.0
1979-07-20 18:44:24.450 ,7,1,0.,12.0,0.,12.0,0.,12.0,0.,12.0
1979-07-20 18:44:36.450 ,7,1,0.,12.0,0.,12.0,0.,12.0,0.,12.0
1979-07-20 18:44:48.450 ,4,1,0.,12.0,0.,12.0,0.,12.0,0.,12.0
1979-07-20 18:45:00.450 ,4,1,0.,12.0,0.,12.0,0.,12.0,0.,12.0
1979-07-20 18:45:12.450 ,0,1,0.,12.0,0.,12.0,0.,12.0,0.,12.0
1979-07-20 18:45:24.450 ,0,1,0.,12.0,0.,12.0,0.,12.0,0.,12.0
1979-07-20 18:45:36.450 ,3,1,0.,12.0,0.,12.0,0.,12.0,0.,12.0
1979-07-20 18:45:48.450 ,3,1,0.,12.0,0.,12.0,0.,12.0,0.,12.0
1979-07-20 18:46:00.450 ,7,1,0.,12.0,0.,12.0,0.,12.0,0.,12.0
1979-07-20 18:46:12.450 ,7,1,0.,12.0,0.,12.0,0.,12.0,0.,12.0
1979-07-20 18:46:24.450 ,4,1,0.,12.0,0.,12.0,0.,12.0,0.,12.0
1979-07-20 18:46:36.450 ,4,1,0.,12.0,0.,12.0,0.,12.0,0.,12.0
1979-07-20 18:46:48.450 ,0,1,0.,12.0,0.,12.0,0.,12.0,0.,12.0
1979-07-20 18:47:00.450 ,0,1,0.,12.0,0.,12.0,0.,12.0,0.,12.0
1979-07-20 18:47:12.450 ,3,1,0.,12.0,0.,12.0,0.,12.0,0.,12.0
1979-07-20 18:47:24.450 ,3,1,0.,12.0,0.,12.0,0.,12.0,0.,12.0
1979-07-20 18:47:36.450 ,7,1,0.,12.0,0.,12.0,0.,12.0,0.,12.0
1979-07-20 18:47:48.450 ,7,1,0.,12.0,0.,12.0,0.,12.0,0.,12.0
1979-07-20 18:48:00.450 ,4,1,0.,12.0,0.,12.0,0.,12.0,0.,12.0
1979-07-20 18:48:12.450 ,4,1,0.,12.0,0.,12.0,0.,12.0,0.,12.0
1979-07-20 18:48:24.450 ,0,1,0.,12.0,0.,12.0,0.,12.0,0.,12.0
1979-07-20 18:48:36.450 ,0,1,0.,12.0,0.,12.0,0.,12.0,0.,12.0
1979-07-20 18:48:48.450 ,3,1,0.,12.0,0.,12.0,0.,12.0,0.,12.0
1979-07-20 18:49:00.450 ,3,1,0.,12.0,0.,12.0,0.,12.0,0.,12.0
1979-07-20 18:49:12.450 ,7,1,0.,12.0,0.,12.0,0.,12.0,0.,12.0
1979-07-20 18:49:24.450 ,7,1,0.,12.0,0.,12.0,0.,12.0,0.,12.0
1979-07-20 18:49:36.450 ,4,1,0.,12.0,0.,12.0,0.,12.0,0.,12.0
1979-07-20 18:49:48.450 ,4,1,0.,12.0,0.,12.0,0.,12.0,0.,12.0
1979-07-20 18:50:00.450 ,0,1,0.,12.0,0.,12.0,0.,12.0,0.,12.0
1979-07-20 18:50:12.450 ,0,1,0.,12.0,0.,12.0,0.,12.0,0.,12.0
1979-07-20 18:50:24.450 ,3,1,0.,12.0,0.,12.0,0.,12.0,0.,12.0
1979-07-20 18:50:36.450 ,3,1,0.,12.0,0.,12.0,0.,12.0,0.,12.0
1979-07-20 18:50:48.450 ,7,1,0.,12.0,0.,12.0,0.,12.0,0.,12.0
1979-07-20 18:51:00.450 ,7,1,0.,12.0,0.,12.0,0.,12.0,0.,12.0
1979-07-20 18:52:00.450 ,0,0,1.,12.0,0.,12.0,0.,12.0,0.,12.0
1979-07-20 18:52:12.450 ,0,0,0.,12.0,0.,12.0,0.,12.0,0.,12.0
1979-07-20 18:52:24.450 ,7,1,0.,12.0,0.,12.0,0.,12.0,0.,12.0
1979-07-20 18:52:36.450 ,7,1,0.,12.0,0.,12.0,0.,12.0,0.,12.0
1979-07-20 18:52:48.450 ,4,1,0.,12.0,0.,12.0,0.,12.0,0.,12.0
1979-07-20 18:53:00.450 ,4,1,0.,12.0,0.,12.0,0.,12.0,0.,12.0
1979-07-20 18:53:12.450 ,0,1,0.,12.0,0.,12.0,0.,12.0,0.,12.0
1979-07-20 18:53:24.450 ,0,1,0.,12.0,0.,12.0,0.,12.0,0.,12.0
1979-07-20 18:53:36.450 ,0,0,0.,12.0,0.,12.0,0.,12.0,0.,12.0
1979-07-20 18:53:48.450 ,0,0,0.,12.0,0.,12.0,0.,12.0,0.,12.0
1979-07-20 18:54:00.450 ,0,0,0.,12.0,0.,12.0,0.,12.0,0.,12.0
1979-07-20 18:54:12.450 ,0,0,0.,12.0,0.,12.0,0.,12.0,0.,12.0
1979-07-20 18:54:24.450 ,5,1,0.,12.0,0.,12.0,0.,12.0,0.,12.0
1979-07-20 18:54:36.450 ,5,1,0.,12.0,0.,12.0,0.,12.0,0.,12.0
1979-07-20 18:54:48.450 ,5,0,0.,12.0,0.,12.0,0.,12.0,0.,12.0
1979-07-20 18:55:00.450 ,5,0,0.,12.0,0.,12.0,0.,12.0,0.,12.0
1979-07-20 18:55:12.450 ,4,1,0.,12.0,0.,12.0,0.,12.0,0.,12.0
1979-07-20 18:55:24.450 ,4,1,0.,12.0,0.,12.0,0.,12.0,0.,12.0
1979-07-20 18:55:36.450 ,4,0,0.,12.0,0.,12.0,0.,12.0,0.,12.0
1979-07-20 18:55:48.450 ,4,0,0.,12.0,0.,12.0,0.,12.0,0.,12.0
1979-07-20 18:56:00.450 ,3,1,0.,12.0,0.,12.0,0.,12.0,0.,12.0
1979-07-20 18:56:12.450 ,3,1,0.,12.0,0.,12.0,0.,12.0,0.,12.0
1979-07-20 18:56:24.450 ,3,0,0.,12.0,0.,12.0,0.,12.0,0.,12.0
1979-07-20 18:56:36.450 ,3,0,0.,12.0,0.,12.0,0.,12.0,0.,12.0
1979-07-20 18:56:48.450 ,2,1,0.,12.0,0.,12.0,0.,12.0,0.,12.0
1979-07-20 18:57:00.450 ,2,1,0.,12.0,0.,12.0,0.,12.0,0.,12.0
1979-07-20 18:57:12.450 ,2,0,0.,12.0,0.,12.0,0.,12.0,0.,12.0
1979-07-20 18:57:24.450 ,2,0,0.,12.0,0.,12.0,0.,12.0,0.,12.0
1979-07-20 18:57:36.450 ,1,1,0.,12.0,0.,12.0,0.,12.0,0.,12.0
1979-07-20 18:57:48.450 ,1,1,0.,12.0,0.,12.0,0.,12.0,0.,12.0
1979-07-20 18:58:00.450 ,1,0,0.,12.0,0.,12.0,0.,12.0,0.,12.0
1979-07-20 18:58:12.450 ,1,0,0.,12.0,0.,12.0,0.,12.0,0.,12.0
1979-07-20 18:58:24.450 ,0,1,0.,12.0,0.,12.0,0.,12.0,0.,12.0
1979-07-20 18:58:36.450 ,0,1,0.,12.0,0.,12.0,0.,12.0,0.,12.0
1979-07-20 18:58:48.450 ,0,0,0.,12.0,0.,12.0,0.,12.0,0.,12.0
1979-07-20 18:59:00.450 ,0,0,0.,12.0,0.,12.0,0.,12.0,0.,12.0
1979-07-20 18:59:12.450 ,0,1,0.,12.0,0.,12.0,0.,12.0,0.,12.0
1979-07-20 18:59:24.450 ,0,1,0.,12.0,0.,12.0,0.,12.0,0.,12.0
1979-07-20 18:59:36.450 ,0,0,0.,12.0,0.,12.0,0.,12.0,0.,12.0
1979-07-20 18:59:48.450 ,0,0,0.,12.0,0.,12.0,0.,12.0,0.,12.0
1979-07-20 19:00:00.450 ,1,1,0.,12.0,0.,12.0,0.,12.0,0.,12.0
1979-07-20 19:00:12.450 ,1,1,1.,12.0,0.,12.0,0.,12.0,0.,12.0
1979-07-20 19:00:24.450 ,1,0,0.,12.0,0.,12.0,0.,12.0,0.,12.0
1979-07-20 19:00:36.450 ,1,0,0.,12.0,0.,12.0,0.,12.0,0.,12.0
1979-07-20 19:00:48.450 ,2,1,0.,12.0,0.,12.0,0.,12.0,0.,12.0
1979-07-20 19:01:00.450 ,2,1,0.,12.0,0.,12.0,0.,12.0,0.,12.0
1979-07-20 19:01:12.450 ,2,0,0.,12.0,0.,12.0,0.,12.0,0.,12.0
1979-07-20 19:01:24.450 ,2,0,0.,12.0,0.,12.0,0.,12.0,0.,12.0
1979-07-20 19:02:24.450 ,0,0,1.,12.0,0.,12.0,0.,12.0,0.,12.0
1979-07-20 19:02:36.450 ,0,0,0.,12.0,0.,12.0,0.,12.0,0.,12.0
1979-07-20 19:02:48.450 ,0,0,0.,12.0,0.,12.0,0.,12.0,0.,12.0
1979-07-20 19:03:00.450 ,0,0,0.,12.0,0.,12.0,0.,12.0,0.,12.0
1979-07-20 19:03:12.450 ,5,1,0.,12.0,0.,12.0,0.,12.0,0.,12.0
1979-07-20 19:03:24.450 ,5,1,0.,12.0,0.,12.0,0.,12.0,0.,12.0
1979-07-20 19:03:36.450 ,5,0,0.,12.0,0.,12.0,0.,12.0,0.,12.0
1979-07-20 19:03:48.450 ,5,0,,0,,0,,0,,0
1979-07-20 19:04:00.450 ,6,1,0.,12.0,0.,12.0,0.,12.0,0.,12.0
1979-07-20 19:04:12.450 ,6,1,0.,12.0,0.,12.0,0.,12.0,0.,12.0
1979-07-20 19:04:24.450 ,6,0,0.,12.0,0.,12.0,0.,12.0,0.,12.0
1979-07-20 19:04:36.450 ,6,0,0.,12.0,0.,12.0,0.,12.0,0.,12.0
1979-07-20 19:04:48.450 ,7,1,0.,12.0,0.,12.0,0.,12.0,0.,12.0
1979-07-20 19:05:00.450 ,7,1,0.,12.0,0.,12.0,0.,12.0,0.,12.0
1979-07-20 19:05:12.450 ,7,0,0.,12.0,0.,12.0,0.,12.0,0.,12.0
1979-07-20 19:05:24.450 ,7,0,0.,12.0,0.,12.0,0.,12.0,0.,12.0
1979-07-20 19:05:36.450 ,7,1,0.,12.0,0.,12.0,0.,12.0,0.,12.0
1979-07-20 19:05:48.450 ,7,1,0.,12.0,0.,12.0,0.,12.0,0.,12.0
1979-07-20 19:06:00.450 ,7,0,0.,12.0,0.,12.0,0.,12.0,0.,12.0
1979-07-20 19:06:12.450 ,7,0,0.,12.0,0.,12.0,0.,12.0,0.,12.0
1979-07-20 19:06:24.450 ,6,1,0.,12.0,0.,12.0,0.,12.0,0.,12.0
1979-07-20 19:06:36.450 ,6,1,0.,12.0,0.,12.0,0.,12.0,0.,12.0
1979-07-20 19:06:48.450 ,6,0,0.,12.0,0.,12.0,0.,12.0,0.,12.0
1979-07-20 19:07:00.450 ,6,0,0.,12.0,0.,12.0,0.,12.0,0.,12.0
1979-07-20 19:07:12.450 ,5,1,0.,12.0,0.,12.0,0.,12.0,0.,12.0
1979-07-20 19:07:24.450 ,5,1,1.,12.0,0.,12.0,0.,12.0,0.,12.0
1979-07-20 19:07:36.450 ,5,0,0.,12.0,0.,12.0,0.,12.0,0.,12.0
1979-07-20 19:07:48.450 ,5,0,0.,12.0,0.,12.0,0.,12.0,0.,12.0
1979-07-20 19:08:00.450 ,4,1,0.,12.0,0.,12.0,0.,12.0,0.,12.0
1979-07-20 19:08:12.450 ,4,1,0.,12.0,0.,12.0,0.,12.0,0.,12.0
1979-07-20 19:08:24.450 ,4,0,0.,12.0,0.,12.0,0.,12.0,0.,12.0
1979-07-20 19:08:36.450 ,4,0,0.,12.0,0.,12.0,0.,12.0,0.,12.0
1979-07-20 19:08:48.450 ,3,1,0.,12.0,0.,12.0,0.,12.0,0.,12.0
1979-07-20 19:09:00.450 ,3,1,0.,12.0,0.,12.0,0.,12.0,0.,12.0
1979-07-20 19:09:12.450 ,3,0,0.,12.0,0.,12.0,0.,12.0,0.,12.0
1979-07-20 19:09:24.450 ,3,0,0.,12.0,0.,12.0,0.,12.0,0.,12.0
1979-07-20 19:09:36.450 ,2,1,0.,12.0,0.,12.0,0.,12.0,0.,12.0
1979-07-20 19:09:48.450 ,2,1,0.,12.0,0.,12.0,0.,12.0,0.,12.0
1979-07-20 19:10:00.450 ,2,0,0.,12.0,0.,12.0,0.,12.0,0.,12.0
1979-07-20 19:10:12.450 ,2,0,0.,12.0,0.,12.0,0.,12.0,0.,12.0
1979-07-20 19:10:24.450 ,1,1,0.,12.0,0.,12.0,0.,12.0,0.,12.0
1979-07-20 19:10:36.450 ,1,1,0.,12.0,0.,12.0,0.,12.0,0.,12.0
1979-07-20 19:10:48.450 ,1,0,1.,12.0,0.,12.0,0.,12.0,0.,12.0
1979-07-20 19:11:00.450 ,1,0,0.,12.0,0.,12.0,0.,12.0,0.,12.0
1979-07-20 19:11:12.450 ,0,1,0.,12.0,0.,12.0,0.,12.0,0.,12.0
1979-07-20 19:11:24.450 ,0,1,1.,12.0,0.,12.0,0.,12.0,0.,12.0
1979-07-20 19:11:36.450 ,0,0,0.,12.0,0.,12.0,0.,12.0,0.,12.0
1979-07-20 19:11:48.450 ,0,0,0.,12.0,0.,12.0,0.,12.0,0.,12.0
1979-07-20 19:12:00.450 ,0,1,0.,12.0,0.,12.0,0.,12.0,0.,12.0
1979-07-20 19:12:12.450 ,0,1,0.,12.0,0.,12.0,0.,12.0,0.,12.0
1979-07-20 19:12:24.450 ,0,0,0.,12.0,0.,12.0,0.,12.0,0.,12.0
1979-07-20 19:12:36.450 ,0,0,0.,12.0,0.,12.0,0.,12.0,0.,12.0
1979-07-20 19:12:48.450 ,0,0,0.,12.0,0.,12.0,0.,12.0,0.,12.0
1979-07-20 19:13:00.450 ,0,0,0.,12.0,0.,12.0,0.,12.0,0.,12.0
1979-07-20 19:13:12.450 ,0,0,0.,12.0,0.,12.0,0.,12.0,0.,12.0
1979-07-20 19:13:24.450 ,0,0,0.,12.0,0.,12.0,0.,12.0,0.,12.0
1979-07-20 19:13:36.450 ,2,1,0.,12.0,0.,12.0,0.,12.0,0.,12.0
1979-07-20 19:13:48.450 ,2,1,0.,12.0,0.,12.0,0.,12.0,0.,12.0
1979-07-20 19:14:00.450 ,2,0,0.,12.0,0.,12.0,0.,12.0,0.,12.0
1979-07-20 19:14:12.450 ,2,0,0.,12.0,0.,12.0,0.,12.0,0.,12.0
1979-07-20 19:14:24.450 ,3,1,0.,12.0,0.,12.0,0.,12.0,0.,12.0
1979-07-20 19:14:36.450 ,3,1,0.,12.0,0.,12.0,0.,12.0,0.,12.0
1979-07-20 19:14:48.450 ,3,0,0.,12.0,0.,12.0,0.,12.0,0.,12.0
1979-07-20 19:15:00.450 ,3,0,0.,12.0,0.,12.0,0.,12.0,0.,12.0
1979-07-20 19:15:12.450 ,4,1,0.,12.0,0.,12.0,0.,12.0,0.,12.0
1979-07-20 19:15:24.450 ,4,1,0.,12.0,0.,12.0,0.,12.0,0.,12.0
1979-07-20 19:15:36.450 ,4,0,0.,12.0,0.,12.0,0.,12.0,0.,12.0
1979-07-20 19:15:48.450 ,4,0,0.,12.0,0.,12.0,0.,12.0,0.,12.0
1979-07-20 19:16:00.450 ,5,1,0.,12.0,0.,12.0,0.,12.0,0.,12.0
1979-07-20 19:16:12.450 ,5,1,0.,12.0,0.,12.0,0.,12.0,0.,12.0
1979-07-20 19:16:24.450 ,5,0,0.,12.0,0.,12.0,0.,12.0,0.,12.0
1979-07-20 19:16:36.450 ,5,0,0.,12.0,0.,12.0,0.,12.0,0.,12.0
1979-07-20 19:16:48.450 ,6,1,0.,12.0,0.,12.0,0.,12.0,0.,12.0
1979-07-20 19:17:00.450 ,6,1,0.,12.0,0.,12.0,0.,12.0,0.,12.0
1979-07-20 19:17:12.450 ,6,0,0.,12.0,0.,12.0,0.,12.0,0.,12.0
1979-07-20 19:17:24.450 ,6,0,0.,12.0,0.,12.0,0.,12.0,0.,12.0
1979-07-20 19:17:36.450 ,7,1,0.,12.0,0.,12.0,0.,12.0,0.,12.0
1979-07-20 19:17:48.450 ,7,1,0.,12.0,0.,12.0,0.,12.0,0.,12.0
1979-07-20 19:18:00.450 ,7,0,0.,12.0,0.,12.0,0.,12.0,0.,12.0
1979-07-20 19:18:12.450 ,7,0,0.,12.0,0.,12.0,0.,12.0,0.,12.0
1979-07-20 19:18:24.450 ,7,1,0.,12.0,0.,12.0,0.,12.0,0.,12.0
1979-07-20 19:18:36.450 ,7,1,0.,12.0,0.,12.0,0.,12.0,0.,12.0
1979-07-20 19:18:48.450 ,7,0,0.,12.0,0.,12.0,0.,12.0,0.,12.0
1979-07-20 19:19:00.450 ,7,0,0.,12.0,0.,12.0,0.,12.0,0.,12.0
1979-07-20 19:19:12.450 ,6,1,0.,12.0,0.,12.0,0.,12.0,0.,12.0
1979-07-20 19:19:24.450 ,6,1,0.,12.0,0.,12.0,0.,12.0,0.,12.0
1979-07-20 19:19:36.450 ,6,0,0.,12.0,0.,12.0,0.,12.0,0.,12.0
1979-07-20 19:19:48.450 ,6,0,0.,12.0,0.,12.0,0.,12.0,0.,12.0
1979-07-20 19:20:00.450 ,5,1,0.,12.0,0.,12.0,0.,12.0,0.,12.0
1979-07-20 19:20:12.450 ,5,1,0.,12.0,0.,12.0,0.,12.0,0.,12.0
1979-07-20 19:20:48.450 ,0,0,0.,12.0,0.,12.0,0.,12.0,0.,12.0